CST,Max TemperatureF,Mean TemperatureF,Min TemperatureF,Max Dew PointF,MeanDew PointF,Min DewpointF,Max Humidity, Mean Humidity, Min Humidity, Max Sea Level PressureIn, Mean Sea Level PressureIn, Min Sea Level PressureIn, Max VisibilityMiles, Mean VisibilityMiles, Min VisibilityMiles, Max Wind SpeedMPH, Mean Wind SpeedMPH, Max Gust SpeedMPH,PrecipitationIn, CloudCover, Events, WindDirDegrees
2012-11-1,55,43,31,33,25,18,83,55,25,29.91,29.85,29.81,10,10,10,16,8,21,0.00,2,,282
2012-11-2,50,41,32,34,30,26,89,71,39,30.10,30.00,29.84,10,10,7,10,8,,0.00,0,,360
2012-11-3,40,36,31,36,34,29,93,87,80,30.16,30.13,30.09,10,9,0,10,6,,0.08,5,Fog-Rain,49
2012-11-4,47,38,29,36,30,27,97,79,45,30.20,30.17,30.14,10,9,3,9,4,17,0.00,1,,340
2012-11-5,45,34,24,32,28,23,96,78,53,30.17,30.12,30.07,10,8,2,12,5,16,0.00,0,Snow,60
2012-11-6,45,34,24,38,32,23,97,83,57,30.07,29.96,29.87,10,6,2,8,3,,0.11,5,Rain,166
2012-11-7,44,42,39,40,39,37,100,90,79,30.14,30.01,29.86,7,4,1,10,5,,0.08,8,Rain,6
2012-11-8,46,40,35,39,36,33,95,83,66,30.22,30.16,30.09,10,6,2,10,4,,0.00,4,,186
2012-11-9,61,48,34,46,40,33,95,75,55,30.11,30.04,29.96,10,7,2,17,7,21,0.00,0,,157
2012-11-10,72,62,52,51,46,42,76,59,41,30.03,30.00,29.94,10,8,4,24,13,31,0.00,1,,184
2012-11-11,68,60,51,54,48,44,95,64,52,30.02,29.94,29.84,10,7,5,31,20,43,0.16,3,Rain,189
2012-11-12,51,40,30,50,30,25,96,80,60,30.36,30.18,29.94,10,10,3,24,12,30,0.40,4,Rain-Snow,262
2012-11-13,41,34,26,28,25,23,89,74,50,30.50,30.45,30.36,10,10,2,6,4,,0.00,0,,283
2012-11-14,43,35,27,30,27,24,94,76,54,30.51,30.44,30.35,10,9,1,9,3,,0.00,0,,97
2012-11-15,46,35,24,32,28,23,96,81,52,30.38,30.34,30.31,10,6,2,4,0,,0.00,0,,36
2012-11-16,51,38,26,35,29,26,96,75,42,30.46,30.42,30.35,10,6,2,5,1,,0.00,0,,88
2012-11-17,55,41,27,37,31,26,93,73,43,30.53,30.46,30.41,10,7,3,9,3,,0.00,0,,93
2012-11-18,58,44,30,35,32,28,92,66,36,30.41,30.36,30.31,10,10,7,8,3,,0.00,0,,114
2012-11-19,57,46,36,41,36,31,82,68,49,30.30,30.22,30.12,10,10,7,9,2,,0.00,3,Rain,160
2012-11-20,56,52,47,47,44,39,91,77,67,30.15,30.10,30.05,10,8,5,8,3,,0.00,7,,298
2012-11-21,60,47,34,49,42,34,100,87,59,30.25,30.18,30.14,7,3,0,7,2,,0.00,1,Fog,186
2012-11-22,61,51,41,51,45,40,98,77,55,30.14,30.00,29.89,10,7,2,23,11,38,0.07,2,Rain,195
2012-11-23,49,36,24,42,26,18,84,71,60,30.23,30.10,29.94,10,10,10,28,16,39,0.00,4,,287
2012-11-24,32,28,25,24,21,19,82,73,63,30.26,30.17,30.02,10,10,10,10,7,,0.00,4,,260
2012-11-25,32,30,29,25,24,24,82,77,73,30.01,29.94,29.89,10,10,10,17,12,22,0.00,0,,192
2012-11-26,,,,,,,,,,,,,,,,,,,,,,
2012-11-27,,,,,,,,,,,,,,,,,,,,,,
2012-11-28,,,,,,,,,,,,,,,,,,,,,,
2012-11-29,,,,,,,,,,,,,,,,,,,,,,
2012-11-30,,,,,,,,,,,,,,,,,,,,,,